Погода в Колодезном

Россия / Республика Крым     45°13′41″N   34°20′03″E
темп.,
°C
ветер,
м/с
пор.,
м/с
влажн.,
%
обл.,
%
осадки,
мм/ч
давл.,
гПа
погр.,
м
18 апреля, вс
вс1800:00+7в226997 0.0 101832
03:00+7ююв2362100 0.1 101786
06:00+7св1278100 0.7 101892
09:00+10в5672100 0.9 1017426
12:00+9в4679100 0.1 1017375
15:00+12в3374100 0.1 1016599
18:00+11всв4584100 0.1 1016394
21:00+9всв4793100 0.1 1017260
19 апреля, пн
пн1900:00+9всв3496100 0.1 1016185
03:00+9в1296100 0.1 101680
06:00+9св2296100 0.0 1015108
09:00+11св338898 0.0 1015343
12:00+13всв4478100 0.0 1014732
15:00+14всв5578100 0.1 1013678
18:00+12всв6889100 0.1 1011369
21:00+10всв4797100 0.8 1010210
20 апреля, вт
вт2000:00+11в3498100 1.8 1007137
03:00+11ююз2498100 4.4 1005149
06:00+11ю228619 3.5 100219
09:00+13ююз61179100 3.5 10021247
12:00+12юз10158196 0.2 10021141
15:00+13юз13197478 0.3 10011515
18:00+9зюз142288100 0.1 10031379
21:00+9з111784100 0.1 10091159
21 апреля, ср
ср2100:00+8зюз71386100 0.0 1012644
03:00+8юз61291100 0.1 1014370
06:00+7юз4109499 0.0 1016218
09:00+11юз6875100 0.0 1017686
12:00+14зюз5656100 0.1 10181580
15:00+14зюз666349 0.4 10191213
18:00+12юз467073 0.4 1019725
21:00+9юз358948 0.4 102197
22 апреля, чт
чт2200:00+8ююз34895 0.0 102254
03:00+7ююз228369 0.0 102215
06:00+7ююз227899 0.0 102310
09:00+12ююз115999 0.0 1023334
12:00+16зюз12487 0.0 10231546
15:00+16зюз335117 1.8 10231502
18:00+15з44593 0.6 1023802
21:00+10зюз22804 0.6 102431